Flag for Mexico Weather past 2 weeks in Guadalajara, Jalisco, Mexico

Now
79 °F

Partly sunny.


Feels Like: 78 °F
Forecast: 59 / 84 °F
Wind: No wind

Location: Don Miguel / Guadalaj

Current Time: Apr 28, 2015 at 2:58:09 PM

Latest Report: Apr 28, 2015 at 1:51 PM


Visibility: 8 mi

Pressure: 30.06 "Hg

Humidity: 28%

Dew point: 43 °F

Location of GuadalajaraLocation

Historic Weather in Guadalajara — Graph

°F

Guadalajara temperature yesterday

Maximum temperature yesterday: 84 °F (at 2:52 PM)
Minimum temperature yesterday: 59 °F (at 7:51 AM)
Average temperature yesterday: 74 °F

Past Weeks' High & Low Weather Summary

 TemperatureHumidityPressure
High88 °F (Apr 21, 3:49 PM)88% (Apr 14, 7:51 AM)30.25 "Hg (Apr 14, 7:51 AM)
Low52 °F (Apr 19, 7:51 AM)14% (Apr 18, 2:48 PM)29.65 "Hg (Apr 27, 3:52 PM)
Average72 °F46%30.01 "Hg
* Reported Apr 13 1:52 PM — Apr 28 1:51 PM, Guadalajara, Weather by CustomWeather, © 2015

Note: Actual official high and low records may vary slightly from our data, if they occured in-between our weather recording intervals... More about our weather records

Advertising

Guadalajara weather history for previous 24 hours

 ConditionsComfort  
Time TempWeatherWind HumidityBarometerVisibility
1:51 PM
Tue, Apr 28
79 °FPartly sunny.No wind28%30.06 "Hg8 mi
12:55 PM79 °FBroken clouds.7 mph30%29.73 "Hg8 mi
11:48 AM75 °FPartly sunny.5 mph36%30.11 "Hg7 mi
10:50 AM70 °FPartly sunny.7 mph50%30.11 "Hg7 mi
9:50 AM68 °FPartly sunny.No wind60%29.79 "Hg8 mi
8:53 AM64 °FPartly sunny.No wind68%30.09 "Hg10 mi
7:49 AM59 °FPassing clouds.No wind82%30.08 "Hg10 mi
6:53 AM59 °FPassing clouds.No wind82%29.75 "Hg10 mi
5:53 AM61 °FPartly cloudy.No wind77%30.07 "Hg10 mi
4:54 AM64 °FPartly cloudy.5 mph68%30.06 "Hg10 mi
3:58 AM64 °FPassing clouds.5 mph68%30.07 "Hg10 mi
3:00 AM66 °FPassing clouds.7 mph68%30.09 "Hg10 mi
1:54 AM68 °FPassing clouds.3 mph60%30.11 "Hg10 mi
12:53 AM68 °FPassing clouds.6 mph60%29.75 "Hg10 mi
11:45 PM
Mon, Apr 27
70 °FPassing clouds.6 mph53%30.11 "Hg10 mi
10:53 PM72 °FPassing clouds.7 mph50%30.08 "Hg10 mi
9:56 PM73 °FPassing clouds.14 mph47%29.78 "Hg10 mi
8:47 PM75 °FPartly sunny.15 mph36%30.04 "Hg10 mi
7:51 PM77 °FBroken clouds.10 mph34%30.00 "Hg10 mi
6:51 PM81 °FBroken clouds.9 mph26%29.67 "Hg10 mi
4:50 PM84 °FBroken clouds.14 mph22%29.97 "Hg10 mi
3:52 PM84 °FPartly sunny.16 mph20%29.65 "Hg10 mi
2:52 PM84 °FPartly sunny.16 mph22%30.00 "Hg10 mi
Weather by CustomWeather, © 2015

See weather overviewHow to use our weather pages